CST,Max TemperatureF,Mean TemperatureF,Min TemperatureF,Max Dew PointF,MeanDew PointF,Min DewpointF,Max Humidity, Mean Humidity, Min Humidity, Max Sea Level PressureIn, Mean Sea Level PressureIn, Min Sea Level PressureIn, Max VisibilityMiles, Mean VisibilityMiles, Min VisibilityMiles, Max Wind SpeedMPH, Mean Wind SpeedMPH, Max Gust SpeedMPH,PrecipitationIn, CloudCover, Events, WindDirDegrees
2014-1-1,61,45,28,51,37,27,100,75,49,30.31,30.17,30.01,10,7,2,10,4,29,0.00,3,,177
2014-1-2,58,45,31,52,32,20,93,64,34,30.45,30.21,29.99,10,10,10,25,13,32,0.00,2,,322
2014-1-3,41,31,21,21,19,17,84,62,40,30.54,30.42,30.28,10,10,10,13,3,18,0.00,0,,54
2014-1-4,60,40,20,43,32,17,92,70,47,30.27,30.11,29.96,10,10,10,17,7,23,0.00,4,,152
2014-1-5,58,43,28,55,40,16,93,76,58,30.38,29.98,29.85,10,9,2,25,14,33,0.09,8,Rain,282
2014-1-6,31,25,19,15,4,0,63,46,28,30.67,30.59,30.41,10,10,10,23,12,32,0.00,1,,342
2014-1-7,38,26,13,14,8,1,80,55,29,30.69,30.59,30.50,10,10,10,10,3,15,0.00,0,,167
2014-1-8,44,32,19,34,19,12,84,57,29,30.49,30.40,30.32,10,10,10,10,3,15,0.02,6,Rain,133
2014-1-9,53,46,38,46,38,29,93,79,64,30.34,30.26,30.17,10,10,4,10,4,14,0.23,8,Rain,78
2014-1-10,66,58,49,63,54,46,100,89,77,30.15,29.94,29.78,10,8,2,16,8,23,0.08,8,Rain,171
2014-1-11,65,52,39,61,43,28,100,64,27,30.10,29.95,29.76,10,9,2,24,9,31,0.00,1,,279
2014-1-12,70,50,30,40,33,29,96,60,23,30.17,30.07,29.95,10,10,10,18,7,25,T,1,Rain,177
2014-1-13,68,58,47,61,49,33,97,71,44,30.06,29.91,29.82,10,9,2,22,10,28,0.43,6,Rain,225
2014-1-14,67,50,33,36,31,25,96,58,20,30.17,30.07,30.02,10,10,10,16,6,26,0.00,1,,258
2014-1-15,52,39,25,31,21,15,78,51,24,30.31,30.23,30.18,10,10,10,25,9,33,0.00,0,,324
2014-1-16,65,46,26,32,27,21,85,56,26,30.17,30.08,29.98,10,10,10,25,10,32,0.00,0,,225
2014-1-17,52,41,30,31,15,7,58,37,16,30.27,30.21,30.09,10,10,10,25,10,36,0.00,0,,302
2014-1-18,64,44,24,35,23,17,81,50,19,30.27,30.14,30.01,10,10,10,28,9,33,0.00,0,,215
2014-1-19,60,47,34,34,27,19,75,48,20,30.29,30.18,30.09,10,10,10,12,3,20,0.00,0,,264
2014-1-20,73,52,30,48,36,26,78,53,27,30.11,30.00,29.89,10,10,8,17,6,23,0.00,0,,208
2014-1-21,57,42,26,39,20,13,66,45,24,30.28,30.20,30.00,10,10,10,25,11,33,0.00,0,,355
2014-1-22,54,37,19,28,21,17,88,57,26,30.27,30.21,30.14,10,10,10,8,2,14,0.00,0,,117
2014-1-23,42,34,26,26,19,7,69,54,39,30.75,30.52,30.22,10,9,2,24,13,31,T,7,Snow,45
2014-1-24,38,31,23,14,4,-1,60,40,20,30.75,30.57,30.32,10,10,10,20,8,25,0.00,2,,83
2014-1-25,62,42,21,30,23,15,84,53,22,30.29,30.12,30.01,10,10,9,14,5,18,0.00,0,,227
2014-1-26,62,48,34,39,34,29,76,56,36,30.01,29.90,29.79,10,10,10,16,5,23,0.00,2,,177
2014-1-27,50,39,28,45,23,0,92,59,25,30.32,30.09,29.84,10,9,1,25,14,33,0.00,1,,24
2014-1-28,32,27,21,10,7,0,59,44,29,30.48,30.40,30.31,10,9,4,24,12,32,T,5,Snow,26
2014-1-29,38,27,16,13,8,3,80,53,25,30.53,30.45,30.36,10,10,10,7,2,10,0.00,0,,156
2014-1-30,51,33,15,27,13,4,88,52,16,30.34,30.19,30.06,10,10,10,17,7,23,0.00,1,,167
2014-1-31,65,54,42,48,41,29,83,68,52,30.09,30.02,29.96,10,10,10,16,9,26,0.00,6,,159